User: anonymous   Login
Location: Alsip
(41.6689°N, 87.7387°W)
Time: 18:24:49
(UTC+00:00)
Language:

Cosmos 1703 Rocket - Orbit

View from above orbital plane
View from above orbital plane
View from above satellite
View from above satellite

Ground track
Ground track

The orbit data is extracted from the following two-line orbital elements,

1 16263U 85108B   20263.08956498  .00000050  00000-0  31487-5 0  9995
2 16263  82.5012  77.9549 0020886  32.7822 106.4770 14.83107163880743
Epoch (UTC): 19 September 2020 02:08:58
Eccentricity: 0.0020886
inclination: 82.5012°
perigee height: 605 km
apogee height: 634 km
right ascension of ascending node: 77.9549°
argument of perigee: 32.7822°
revolutions per day: 14.83107163
mean anomaly at epoch: 106.4770°
orbit number at epoch: 88074

The dashed part of the orbit path shows where the satellite is in the earth's shadow,  

DLR